Regional Weather Roundup
Issued by NWS

Home | Current Version | Previous Version | Graphics & Text | Print | Product List | Glossary On
Versions: 1 2 3 4 5 6 7 8 9 10 11 12 13 14 15 16 17 18 19 20 21 22 23 24 25 26 27 28 29 30 31 32 33 34 35 36 37 38 39 40 41 42 43 44 45 46 47 48 49 50
000
ASUS43 KMPX 221610
RWRMN
WEATHER ROUNDUP FOR MINNESOTA
NATIONAL WEATHER SERVICE TWIN CITIES/CHANHASSEN MN
1000 AM CST THU FEB 22 2018


NOTE: "FAIR" INDICATES FEW OR NO CLOUDS BELOW 12,000 FEET WITH NO
SIGNIFICANT WEATHER AND/OR OBSTRUCTIONS TO VISIBILITY. N/A MEANS
CURRENT SKY AND/OR WEATHER CONDITIONS ARE NOT AVAILABLE.

MNZ060>063-068>070-221700-
   Twin Cities Metro

CITY           SKY/WX    TMP DP  RH WIND       PRES   REMARKS
TWIN CITIES    CLOUDY    19  10  68 SE10      30.57S WCI   7
ST PAUL        CLOUDY    20   9  62 SE7       30.59F WCI  11
CRYSTAL        CLOUDY    18   6  59 SE5       30.56R WCI  11
BLAINE         CLOUDY    18   9  68 E3        30.56F
LAKEVILLE      FAIR      18  10  73 E9        30.54F WCI   6
EDEN PRAIRIE   CLOUDY    19   8  62 E5        30.55F WCI  12
SOUTH ST PAUL  CLOUDY    20   9  60 SE6       30.57S WCI  13
LAKE ELMO      CLOUDY    21  10  63 E8        30.58S WCI  12
$$
MNZ001>005-007-008-013>017-022>024-027-028-221700-
   Northwest Minnesota

CITY           SKY/WX    TMP DP  RH WIND       PRES   REMARKS
BEMIDJI        FAIR       6  -1  70 S6        30.45R WCI  -4
HALLOCK        FAIR       7   0  72 S20       30.42S WCI -13
ROSEAU         FAIR       7   0  72 S5        30.43R WCI  -2
WARROAD        FAIR       9   0  66 S8        30.43S WCI  -4
THIEF RVR FALL FAIR       6  -2  69 S9        30.45  WCI  -8
CROOKSTON      FAIR       9   1  72 S17       30.46S WCI -10
FOSSTON        FAIR      12   0  57 SW8       30.44R WCI   1
DETROIT LAKES  SNOW      14   5  67 S14G22    30.46S VSB 1/4 WCI  -1
MOORHEAD       FAIR       9   0  66 S16G23    30.47S WCI  -9
PARK RAPIDS    FAIR      10   2  69 S10       30.47R HAZE    WCI  -4
MAHNOMEN       FAIR      14   4  64 S10       30.44S WCI   1
$$
MNZ006-009>011-018-025>026-221700-
   North Central Minnesota

CITY           SKY/WX    TMP DP  RH WIND       PRES   REMARKS
BAUDETTE       FAIR       7  -1  70 SE9       30.43F WCI  -7
FLAG ISLAND    FAIR      -2  -8  78 S8        30.44F WCI -17
INTL FALLS     FAIR      10   1  67 S5        30.50F WCI   2
WASKISH        FAIR      16   1  53 SE9G18    30.44F WCI   4
BIG FORK       FAIR      12   1  62 S3        30.49F
LONGVILLE      FAIR      12   3  67 SE8       30.49F WCI   1
GRAND RAPIDS   FAIR      10   2  69 S13       30.53F WCI  -5
CRANE LAKE     FAIR       7   0  72 S5        30.56F WCI  -2
ORR            FAIR      12  -2  52 S5        30.50S WCI   4
COOK             N/A     12   0  57 CALM      30.53S
WALKER         FAIR      12   0  58 S3        30.47R
$$
MNZ012-019>021-037-221700-
   Northeast Minnesota

CITY           SKY/WX    TMP DP  RH WIND       PRES   REMARKS
DULUTH         FAIR      15   3  59 S6        30.55R WCI   6
ELY            FAIR      12   0  57 SE5       30.53S WCI   4
HIBBING        FAIR       7  -1  70 CALM      30.53F
EVELETH        FAIR     N/A N/A N/A CALM      30.54S
DULUTH HARBOR  FAIR      10   3  72 CALM      30.63F
TWO HARBORS    FAIR      34  16  47 CALM      30.57R
GRAND MARAIS     N/A     23  12  62 S5        30.63S WCI  17
G MARAIS ARPRT FAIR      18   3  53 S3        30.53S
$$
MNZ029>031-032-039>041-046>048-054>057-064-221700-
   West Central Minnesota

CITY           SKY/WX    TMP DP  RH WIND       PRES   REMARKS
FERGUS FALLS   FAIR      12   3  67 S14       30.49S WCI  -3
WHEATON        CLOUDY    14   7  73 SE15      30.50R WCI  -1
MORRIS         CLOUDY    12   5  73 SE15      30.48S WCI  -4
ALEXANDRIA     CLOUDY    13   3  64 SE16      30.49F WCI  -3
ELBOW LAKE     CLOUDY    14   4  65 SE18      30.48S WCI  -3
WADENA         FAIR      10   3  72 SE7       30.48S WCI   0
GLENWOOD       PTSUNNY   12   5  73 SE10      30.51S WCI  -1
APPLETON       CLOUDY    16   7  67 SE10      30.50F WCI   3
BENSON         CLOUDY    14   3  62 S13       30.52F WCI   0
MADISON        CLOUDY    18  10  73 SE13      30.50F WCI   4
WILLMAR        PTSUNNY   16   9  73 SE8       30.54S WCI   5
$$
MNZ033>034-036-042>043-049>051-058-059-221700-
   Central Minnesota

CITY           SKY/WX    TMP DP  RH WIND       PRES   REMARKS
ST CLOUD       CLOUDY    12   5  73 SE5       30.56F WCI   4
SAUK CENTRE    FAIR      11   2  68 SE8       30.52S WCI  -1
PAYNESVILLE    CLOUDY    15   8  72 SE6       30.53S WCI   6
AITKIN         FAIR      12   1  62 SE7       30.53S WCI   2
PINE RIVER     FAIR       7   0  72 SE5       30.54R WCI  -2
BRAINERD       FAIR      13   1  59 SE8       30.53S WCI   2
STAPLES        FAIR      12   3  67 SE6       30.50F WCI   3
LONG PRAIRIE   FAIR      10   1  67 E8        30.52S WCI  -1
LITTLE FALLS   FAIR      10   0  61 SE7       30.55S WCI   0
LITCHFIELD     CLOUDY    16   9  73 SE6       30.54R WCI   7
BUFFALO        CLOUDY    11   5  76 NE3       30.57S
MAPLE LAKE     CLOUDY    15   9  76 E3        30.56F
HUTCHINSON     CLOUDY    18  10  71 E7        30.54S WCI   9
$$
MNZ037-044-045-052-053-221700-
   East Central Minnesota

CITY           SKY/WX    TMP DP  RH WIND       PRES   REMARKS
PRINCETON      PTSUNNY   14   7  73 SE6       30.56S WCI   5
CAMBRIDGE        N/A     16   3  57 E5        30.58F WCI   9
RUSH CITY      PTSUNNY    7   2  78 CALM      30.59F
MOOSE LAKE     FAIR      12   1  62 CALM      30.57F
HINCKLEY       FAIR       9   3  78 CALM      30.59F
CLOQUET        FAIR      14   1  57 S5        30.56R WCI   6
MCGREGOR       FAIR      14   5  67 S3        30.55F
$$
MNZ071>073-080-081-089-090-097-098-221700-
   Southwest Minnesota

CITY           SKY/WX    TMP DP  RH WIND       PRES   REMARKS
MONTEVIDEO     CLOUDY    16   9  73 S9        30.51F WCI   4
GRANITE FALLS  CLOUDY    19  11  72 E7        30.52F WCI   9
CANBY          CLOUDY    17  11  80 E10       30.49F WCI   4
MARSHALL       CLOUDY    18  12  77 SE7       30.50F WCI   9
REDWOOD FALLS  CLOUDY    16  10  77 E7        30.52S WCI   6
OLIVIA         CLOUDY    21  12  68 E8        30.51F WCI  12
PIPESTONE      CLOUDY    18  14  86 SE7       30.42F WCI   8
WORTHINGTON    CLOUDY    19  15  84 E9        30.44F WCI   8
JACKSON        CLOUDY    19  16  86 NE8       30.46F WCI   9
TRACY          LGT SNOW  18  15  89 CALM      30.47F
SLAYTON        CLOUDY    18  15  88 E6        30.46F WCI   9
$$
MNZ065>067-074>077-082>085-091>093-221700-
   South Central Minnesota

CITY           SKY/WX    TMP DP  RH WIND       PRES   REMARKS
MANKATO        FLURRIES  21  14  73 E8        30.52F WCI  12
NEW ULM        CLOUDY    16  10  79 E3        30.52F
ST JAMES       CLOUDY    18  16  93 NE6       30.51F WCI   9
FAIRMONT       CLOUDY    21  16  81 NE7       30.49F WCI  12
GLENCOE        CLOUDY    19  11  72 E7        30.54S WCI  10
FARIBAULT      PTSUNNY   19  12  73 E9        30.52F WCI   9
OWATONNA       FAIR      21  18  86 E8        30.49F WCI  12
WASECA         CLOUDY    23  18  80 E6        30.52R WCI  16
ALBERT LEA     FAIR      23  18  80 E8        30.49F WCI  14
$$
MNZ078>079-086>088-094>096-221700-
   Southeast Minnesota

CITY           SKY/WX    TMP DP  RH WIND       PRES   REMARKS
ROCHESTER      CLOUDY    21  17  84 E15       30.52S WCI   8
RED WING       CLOUDY    19   9  63 SE5       30.56F WCI  13
STANTON        PTSUNNY   21  12  67 E8        30.53F WCI  12
DODGE CENTER   CLOUDY    19  16  86 E7        30.51R WCI  10
WINONA         FAIR      23  18  80 SE10      30.58R WCI  12
AUSTIN         FAIR      23  18  80 E9        30.49F WCI  13
PRESTON        PTSUNNY   22  17  83 E7        30.52F WCI  13
$$
ABBREVIATIONS USED IN REMARKS
   TC - TEMPERATURES IN CELSIUS
  WCI - WIND CHILL INDEX
   HX - HEAT INDEX
  VSB - VISIBILITY
$$




USA.gov is the U.S. government's official web portal to all federal, state and local government web resources and services.